AFL694 UGTB-UWLL

Flight info

Callsign AFL694
Flight time N/A
Altitude 38000
Route LAPTO N82 NIRGA/K0804F390 R807 UROBO P135 DAFOS T789 NEPNI NEPNI1E
Aircraft A20N/M-SDE2E3FGHIRWXY/LB1

Departure

Time N/A
Airport Tbilisi International Airport (UGTB)

Arrival

Time 2026-04-30 19:16
Airport Ulyanovsk Baratayevka Airport (UWLL)
Time Latitude Longitude Altitude Speed Heading
2026-04-30 17:39 48.57348 44.65300 38162 ft 477 kts 14°
2026-04-30 17:42 48.88965 44.80794 38158 ft 476 kts 11°
2026-04-30 17:43 49.04907 44.87364 37330 ft 471 kts 11°
2026-04-30 17:44 49.14345 44.91358 35311 ft 471 kts 11°
2026-04-30 17:44 49.23836 44.95396 33115 ft 472 kts 10°
2026-04-30 17:46 49.39735 45.02208 31151 ft 479 kts
2026-04-30 17:47 49.52577 45.07716 31147 ft 479 kts
2026-04-30 17:48 49.75122 45.17468 31139 ft 481 kts 10°
2026-04-30 17:50 50.00903 45.28793 31130 ft 483 kts 11°
2026-04-30 17:52 50.20545 45.35496 31131 ft 482 kts
2026-04-30 17:54 50.50103 45.45659 31119 ft 484 kts
2026-04-30 17:56 50.76391 45.54807 31113 ft 485 kts
2026-04-30 17:58 50.96135 45.61872 31115 ft 485 kts 10°
2026-04-30 17:59 51.08936 45.68717 31112 ft 490 kts 24°
2026-04-30 18:00 51.21238 45.78071 31110 ft 489 kts 24°
2026-04-30 18:01 51.36619 45.89663 31106 ft 490 kts 24°
2026-04-30 18:02 51.55143 46.03752 31107 ft 491 kts 24°
2026-04-30 18:04 51.73454 46.18710 31100 ft 492 kts 26°
2026-04-30 18:06 51.96802 46.38151 31094 ft 492 kts 26°
2026-04-30 18:08 52.17993 46.55972 31080 ft 488 kts 27°
2026-04-30 18:10 52.42065 46.76457 31079 ft 486 kts 27°
2026-04-30 18:11 52.63058 46.94534 31079 ft 490 kts 28°
2026-04-30 18:13 52.78208 47.07695 29647 ft 493 kts 29°
2026-04-30 18:13 52.87256 47.15605 27467 ft 477 kts 30°
2026-04-30 18:14 52.93049 47.20697 26232 ft 466 kts 30°
2026-04-30 18:15 53.01692 47.28332 24368 ft 465 kts 30°
2026-04-30 18:15 53.10089 47.35773 22459 ft 448 kts 30°
2026-04-30 18:16 53.15541 47.40627 21253 ft 441 kts 30°
2026-04-30 18:16 53.20893 47.45408 20058 ft 431 kts 30°
2026-04-30 18:17 53.23519 47.47757 19461 ft 427 kts 30°
2026-04-30 18:17 53.26131 47.50099 18867 ft 425 kts 30°
2026-04-30 18:17 53.31292 47.54734 17651 ft 415 kts 30°
2026-04-30 18:18 53.33779 47.56971 17091 ft 409 kts 30°
2026-04-30 18:18 53.36279 47.59228 16512 ft 408 kts 30°
2026-04-30 18:18 53.38761 47.61470 15950 ft 402 kts 30°
2026-04-30 18:18 53.41210 47.63684 15387 ft 397 kts 29°
2026-04-30 18:19 53.43624 47.65868 14835 ft 391 kts 29°
2026-04-30 18:19 53.46002 47.68023 14291 ft 386 kts 29°
2026-04-30 18:19 53.48385 47.70074 13736 ft 381 kts 24°
2026-04-30 18:19 53.50821 47.71737 13196 ft 375 kts 22°
2026-04-30 18:20 53.53233 47.73332 12672 ft 369 kts 22°
2026-04-30 18:20 53.55613 47.74890 12155 ft 364 kts 22°
2026-04-30 18:20 53.57950 47.76418 11647 ft 359 kts 22°
2026-04-30 18:20 53.60273 47.77938 11150 ft 355 kts 22°
2026-04-30 18:21 53.62556 47.79435 10656 ft 350 kts 22°
2026-04-30 18:21 53.64801 47.80912 10363 ft 340 kts 22°
2026-04-30 18:21 53.66967 47.82340 10212 ft 326 kts 23°
2026-04-30 18:21 53.69031 47.83705 10080 ft 313 kts 23°
2026-04-30 18:22 53.70975 47.85205 9841 ft 303 kts 32°
2026-04-30 18:22 53.74530 47.88752 9229 ft 294 kts 33°
2026-04-30 18:22 53.76279 47.90510 8876 ft 291 kts 32°
2026-04-30 18:23 53.78006 47.92238 8525 ft 286 kts 32°
2026-04-30 18:23 53.79706 47.93937 8122 ft 284 kts 32°
2026-04-30 18:23 53.81433 47.95675 7434 ft 292 kts 32°
2026-04-30 18:23 53.83192 47.97464 6771 ft 298 kts 32°
2026-04-30 18:24 53.86685 48.00941 6274 ft 278 kts 31°
2026-04-30 18:24 53.88317 48.02539 6153 ft 265 kts 31°
2026-04-30 18:24 53.89879 48.04072 6033 ft 252 kts 31°
2026-04-30 18:25 53.91359 48.05532 5927 ft 241 kts 31°
2026-04-30 18:25 53.94155 48.08304 5368 ft 230 kts 31°
2026-04-30 18:25 53.95504 48.09649 5142 ft 227 kts 31°
2026-04-30 18:26 53.98271 48.12412 5100 ft 229 kts 31°
2026-04-30 18:26 53.99645 48.13788 5089 ft 229 kts 31°
2026-04-30 18:26 54.01019 48.15163 5098 ft 229 kts 31°
2026-04-30 18:27 54.03763 48.17850 4725 ft 226 kts 22°
2026-04-30 18:27 54.05286 48.18106 4520 ft 219 kts 348°
2026-04-30 18:28 54.07527 48.14943 3829 ft 222 kts 305°
2026-04-30 18:28 54.08374 48.12720 3433 ft 224 kts 305°
2026-04-30 18:28 54.10067 48.08344 2935 ft 213 kts 311°
2026-04-30 18:29 54.11211 48.06957 2834 ft 196 kts 347°
2026-04-30 18:29 54.14529 48.09180 2526 ft 161 kts 34°
2026-04-30 18:30 54.16330 48.11158 2154 ft 149 kts 32°
2026-04-30 18:30 54.18136 48.13068 2096 ft 153 kts 31°
2026-04-30 18:31 54.19031 48.14012 2108 ft 151 kts 31°
2026-04-30 18:31 54.20782 48.15876 2033 ft 136 kts 32°
2026-04-30 18:32 54.22331 48.17613 1662 ft 132 kts 33°
2026-04-30 18:32 54.23079 48.18489 1643 ft 133 kts 34°
2026-04-30 18:32 54.24741 48.20464 752 ft 141 kts 32°
2026-04-30 18:33 54.25582 48.21290 707 ft 139 kts 27°
2026-04-30 18:33 54.27242 48.22860 1411 ft 135 kts 30°
2026-04-30 18:33 54.28050 48.23683 1822 ft 132 kts 31°
2026-04-30 18:34 54.28836 48.24507 2001 ft 135 kts 31°
2026-04-30 18:34 54.30439 48.26106 1994 ft 134 kts 15°
2026-04-30 18:34 54.31365 48.26046 1996 ft 137 kts 342°
2026-04-30 18:35 54.32082 48.24958 1997 ft 144 kts 299°
2026-04-30 18:35 54.32146 48.23249 1985 ft 153 kts 250°
2026-04-30 18:35 54.31545 48.21464 2001 ft 188 kts 238°
2026-04-30 18:36 54.30137 48.17606 2002 ft 192 kts 239°
2026-04-30 18:36 54.29453 48.15638 2002 ft 192 kts 241°
2026-04-30 18:36 54.28113 48.11680 2001 ft 192 kts 242°
2026-04-30 18:37 54.27446 48.09698 2077 ft 201 kts 242°
2026-04-30 18:37 54.26714 48.07519 2538 ft 224 kts 242°
2026-04-30 18:37 54.25936 48.05205 3220 ft 241 kts 241°
2026-04-30 18:37 54.25102 48.02740 3405 ft 237 kts 241°
2026-04-30 18:38 54.24283 48.00330 3554 ft 233 kts 239°
2026-04-30 18:38 54.23240 47.98218 3690 ft 233 kts 220°
2026-04-30 18:38 54.21889 47.96686 3814 ft 234 kts 211°
2026-04-30 18:38 54.20493 47.95259 3932 ft 234 kts 211°
2026-04-30 18:39 54.19089 47.93806 3995 ft 236 kts 212°
2026-04-30 18:39 54.17700 47.92336 3998 ft 234 kts 214°
2026-04-30 18:39 54.16630 47.90272 3990 ft 236 kts 246°
2026-04-30 18:39 54.16353 47.87553 4004 ft 235 kts 272°
2026-04-30 18:40 54.16410 47.84764 3992 ft 234 kts 274°
2026-04-30 18:40 54.16484 47.81982 3988 ft 235 kts 273°
2026-04-30 18:40 54.16560 47.79209 3988 ft 233 kts 273°
2026-04-30 18:40 54.16639 47.76439 3987 ft 233 kts 273°
2026-04-30 18:41 54.16720 47.73670 4008 ft 235 kts 273°
2026-04-30 18:41 54.17087 47.70998 3994 ft 231 kts 300°
2026-04-30 18:41 54.18188 47.69055 4008 ft 231 kts 332°
2026-04-30 18:41 54.19725 47.68341 4008 ft 229 kts 355°
2026-04-30 18:42 54.21218 47.67498 3982 ft 225 kts 326°
2026-04-30 18:42 54.22463 47.63633 4000 ft 233 kts 275°
2026-04-30 18:42 54.22532 47.60864 3980 ft 233 kts 272°
2026-04-30 18:45 54.17141 47.38728 3991 ft 234 kts 202°
2026-04-30 18:45 54.15643 47.37663 3981 ft 233 kts 202°
2026-04-30 18:45 54.14144 47.36603 3991 ft 234 kts 202°
2026-04-30 18:46 54.12642 47.35545 3994 ft 233 kts 202°
2026-04-30 18:46 54.11146 47.34490 3990 ft 233 kts 202°
2026-04-30 18:46 54.09645 47.33436 3986 ft 234 kts 202°
2026-04-30 18:46 54.08140 47.32383 3984 ft 233 kts 202°
2026-04-30 18:47 54.06637 47.31332 3983 ft 234 kts 202°
2026-04-30 18:47 54.05108 47.30422 3984 ft 232 kts 188°
2026-04-30 18:47 54.03519 47.30701 3988 ft 231 kts 157°
2026-04-30 18:47 54.02255 47.32305 3982 ft 228 kts 125°
2026-04-30 18:48 54.01676 47.34802 3996 ft 243 kts 95°
2026-04-30 18:48 54.01901 47.37743 3983 ft 255 kts 73°
2026-04-30 18:48 54.02435 47.40628 3981 ft 255 kts 72°
2026-04-30 18:48 54.02978 47.43512 3986 ft 255 kts 72°
2026-04-30 18:49 54.03520 47.46384 3981 ft 255 kts 72°
2026-04-30 18:49 54.04058 47.49214 3989 ft 255 kts 72°
2026-04-30 18:49 54.04611 47.52120 3985 ft 256 kts 72°
2026-04-30 18:49 54.05158 47.55002 3982 ft 256 kts 72°
2026-04-30 18:50 54.05800 47.57808 3978 ft 254 kts 58°
2026-04-30 18:50 54.06992 47.60024 3986 ft 256 kts 43°
2026-04-30 18:50 54.08327 47.62028 3979 ft 255 kts 42°
2026-04-30 18:50 54.09638 47.63989 3981 ft 255 kts 43°
2026-04-30 18:51 54.10974 47.65990 3973 ft 255 kts 43°
2026-04-30 18:51 54.12310 47.67997 3982 ft 256 kts 43°
2026-04-30 18:51 54.13640 47.69992 3988 ft 255 kts 43°
2026-04-30 18:51 54.14973 47.71993 3984 ft 255 kts 43°
2026-04-30 18:52 54.16320 47.73967 3994 ft 255 kts 40°
2026-04-30 18:52 54.17688 47.75916 3989 ft 256 kts 47°
2026-04-30 18:52 54.18605 47.78473 3982 ft 255 kts 75°
2026-04-30 18:52 54.18742 47.79885 3991 ft 256 kts 89°
2026-04-30 18:53 54.18478 47.82727 3993 ft 256 kts 106°
2026-04-30 18:53 54.17885 47.85602 3991 ft 257 kts 111°
2026-04-30 18:53 54.17226 47.88416 3925 ft 255 kts 111°
2026-04-30 18:53 54.16573 47.91218 3599 ft 254 kts 112°
2026-04-30 18:54 54.15664 47.93821 3209 ft 255 kts 123°
2026-04-30 18:54 54.14633 47.96265 2820 ft 255 kts 126°
2026-04-30 18:54 54.13611 47.98717 2495 ft 252 kts 120°
2026-04-30 18:54 54.12713 48.01278 2212 ft 249 kts 118°
2026-04-30 18:55 54.11823 48.03817 2126 ft 254 kts 118°
2026-04-30 18:55 54.10082 48.08787 2092 ft 234 kts 118°
2026-04-30 18:55 54.09258 48.11114 2088 ft 223 kts 118°
2026-04-30 18:56 54.06882 48.13905 2093 ft 211 kts 178°
2026-04-30 18:56 54.05536 48.13226 2080 ft 200 kts 214°
2026-04-30 18:56 54.04529 48.11698 2103 ft 197 kts 223°
2026-04-30 18:57 54.02571 48.08475 2098 ft 194 kts 223°
2026-04-30 18:57 54.01604 48.06884 2077 ft 193 kts 223°
2026-04-30 18:57 54.00630 48.05271 2077 ft 196 kts 223°
2026-04-30 18:58 53.98694 48.02060 2090 ft 195 kts 223°
2026-04-30 18:58 53.97719 48.00438 2090 ft 196 kts 223°
2026-04-30 18:58 53.96749 47.98820 2082 ft 196 kts 223°
2026-04-30 18:59 53.95967 47.94751 2086 ft 190 kts 291°
2026-04-30 19:00 53.99111 47.92919 2090 ft 174 kts 13°
2026-04-30 19:00 54.00294 47.93315 2087 ft 173 kts 13°
2026-04-30 19:00 54.02665 47.94124 2088 ft 174 kts 13°
2026-04-30 19:01 54.05023 47.94950 2088 ft 175 kts 13°
2026-04-30 19:01 54.06205 47.95371 2095 ft 172 kts 13°
2026-04-30 19:02 54.08554 47.96225 2094 ft 172 kts 13°
2026-04-30 19:02 54.10916 47.97034 2090 ft 174 kts
2026-04-30 19:03 54.12719 47.94561 2090 ft 189 kts 282°
2026-04-30 19:03 54.11502 47.90863 2091 ft 194 kts 206°
2026-04-30 19:04 54.09936 47.87374 2100 ft 192 kts 261°
2026-04-30 19:04 54.09545 47.82869 2087 ft 193 kts 263°
2026-04-30 19:05 54.09164 47.78383 2091 ft 192 kts 263°
2026-04-30 19:05 54.08782 47.73848 2086 ft 192 kts 263°
2026-04-30 19:06 54.08400 47.69330 2077 ft 191 kts 263°
2026-04-30 19:06 54.08208 47.67074 2073 ft 193 kts 263°
2026-04-30 19:06 54.08805 47.62964 2083 ft 184 kts 324°
2026-04-30 19:07 54.11042 47.62994 2083 ft 172 kts 43°
2026-04-30 19:07 54.11595 47.64764 2087 ft 172 kts 71°
2026-04-30 19:08 54.12192 47.68711 2082 ft 173 kts 73°
2026-04-30 19:08 54.12781 47.72674 2078 ft 173 kts 73°
2026-04-30 19:08 54.13078 47.74674 2088 ft 173 kts 73°
2026-04-30 19:09 54.13359 47.78764 2097 ft 174 kts 82°
2026-04-30 19:09 54.13454 47.80821 2086 ft 175 kts 82°
2026-04-30 19:09 54.13550 47.82890 2092 ft 175 kts 83°
2026-04-30 19:10 54.13748 47.86999 2080 ft 174 kts 83°
2026-04-30 19:10 54.13949 47.91108 2078 ft 173 kts 83°
2026-04-30 19:11 54.14050 47.93164 2078 ft 174 kts 83°
2026-04-30 19:11 54.14478 47.97205 2095 ft 174 kts 82°
2026-04-30 19:11 54.14648 47.99237 2081 ft 173 kts 71°
2026-04-30 19:12 54.15117 48.01106 2100 ft 172 kts 61°
2026-04-30 19:12 54.15699 48.02904 2098 ft 173 kts 59°
2026-04-30 19:12 54.16279 48.04676 2103 ft 172 kts 60°
2026-04-30 19:13 54.17382 48.08305 2101 ft 171 kts 63°
2026-04-30 19:13 54.18420 48.11982 2096 ft 171 kts 64°
2026-04-30 19:13 54.19017 48.13756 2084 ft 172 kts 48°
2026-04-30 19:14 54.19963 48.14960 2085 ft 168 kts 33°
2026-04-30 19:14 54.20945 48.15961 1877 ft 165 kts 32°
2026-04-30 19:14 54.21932 48.16948 1549 ft 161 kts 31°
2026-04-30 19:14 54.22886 48.17924 1230 ft 159 kts 32°
2026-04-30 19:15 54.23772 48.18977 884 ft 149 kts 38°
2026-04-30 19:15 54.25335 48.20773 491 ft 126 kts 33°
2026-04-30 19:15 54.26048 48.21555 435 ft 112 kts 32°
2026-04-30 19:16 54.26477 48.22005 423 ft 43 kts 32°
2026-04-30 19:16 54.26662 48.22203 424 ft 28 kts 31°
2026-04-30 19:16 54.27026 48.22589 414 ft 33 kts 32°
2026-04-30 19:17 54.27227 48.22802 409 ft 34 kts 32°
2026-04-30 19:17 54.27439 48.23050 406 ft 2 kts 292°
2026-04-30 19:17 54.27415 48.23023 405 ft 11 kts 211°
2026-04-30 19:18 54.27243 48.22868 408 ft 27 kts 214°
2026-04-30 19:18 54.27028 48.22772 415 ft 17 kts 166°
2026-04-30 19:18 54.26985 48.22790 416 ft 0 kts 166°
2026-04-30 19:19 54.26975 48.22794 416 ft 5 kts 164°
2026-04-30 19:20 54.26925 48.22846 414 ft 10 kts 126°
2026-04-30 19:20 54.26970 48.22944 415 ft 15 kts 31°
2026-04-30 19:20 54.27204 48.23200 409 ft 25 kts 31°
2026-04-30 19:21 54.27360 48.23365 405 ft 29 kts 32°
2026-04-30 19:21 54.27729 48.23760 396 ft 34 kts 32°
2026-04-30 19:22 54.27868 48.23908 393 ft 36 kts 32°
2026-04-30 19:22 54.28161 48.24192 386 ft 1 kts 353°
2026-04-30 19:23 54.28215 48.24100 386 ft 0 kts 299°
2026-04-30 19:25 54.28329 48.23801 387 ft 24 kts 302°
2026-04-30 19:26 54.28380 48.23664 386 ft 0 kts 302°
2026-04-30 19:26 54.28385 48.23652 386 ft 4 kts 302°
2026-04-30 19:27 54.28456 48.23459 386 ft 14 kts 302°
2026-04-30 19:27 54.28527 48.23251 386 ft 0 kts 303°
2026-04-30 19:28 54.28533 48.23238 386 ft 4 kts 307°
2026-04-30 19:28 54.28546 48.23315 386 ft 9 kts 120°
2026-04-30 19:29 54.28539 48.23337 386 ft 0 kts 120°